Simultaneous Nadir Overpasses (SNOs) Predictions

Prediction of SNOs between GOES-15 and METOP-B Satellite Orbit:

Table of predicted SNOs for the next 14.0 days since TLE Epoch: 11/26/2022
Index Date Time (GOES-15) GOES-15 Lat,Lon METOP-B Lat,Lon Distance(km) Time Diff (sec)
1 11/26/2022 18:04:38 -0.18,-128.06 -0.01,-128.94 99.42 80
2 11/27/2022 17:46:39 -0.18,-128.04 -1.07,-123.94 466.74 80
3 11/29/2022 06:05:40 0.17,-128.01 0.05,-128.53 59.96 80
4 12/01/2022 18:01:14 -0.16,-127.92 -0.11,-128.10 21.10 80
5 12/04/2022 05:59:37 0.16,-127.87 0.21,-127.71 18.76 80
6 12/06/2022 18:00:31 -0.15,-127.76 -0.28,-127.27 56.23 80
7 12/08/2022 06:19:31 0.14,-127.74 -0.79,-131.86 469.73 80
8 12/09/2022 05:56:12 0.14,-127.70 0.34,-126.87 94.98 80
